When you browse on this site, cookies collect data to enhance your experience and personalize the content and advertising you see.
Visit our Privacy Policy to learn more. By continuing to use the site, you agree to this use of cookies and data.
  • In Schweiz
  • Länderverzeichnis
  • Für 7 Tage
  • Wassertemperatur
  • Wetterkarte
  • Widgets
  • user-avatar
    Anmelden

    Stündliche Wetter Truto

    Heute, 7 Dezember, Samstag

    Zeit Temperatur Niederschläge Wind Luftdruck Luftfeuchtigkeit
    00:00 +8°C° 0 mm 6 m/S 757 mmHg 86%
    01:00 +8°C° 0 mm 5 m/S 757 mmHg 87%
    02:00 +8°C° 0 mm 5 m/S 757 mmHg 88%
    03:00 +7°C° 0 mm 5 m/S 758 mmHg 89%
    04:00 +7°C° 0 mm 4 m/S 758 mmHg 89%
    05:00 +7°C° 0 mm 4 m/S 758 mmHg 89%
    06:00 +7°C° 0 mm 4 m/S 758 mmHg 88%
    07:00 +7°C° 0 mm 4 m/S 758 mmHg 89%
    08:00 +7°C° 0 mm 4 m/S 758 mmHg 90%
    09:00 +7°C° 0 mm 4 m/S 758 mmHg 90%
    10:00 +8°C° 0 mm 4 m/S 758 mmHg 87%
    11:00 +9°C° 0 mm 5 m/S 758 mmHg 85%
    12:00 +10°C° 0 mm 5 m/S 758 mmHg 82%
    13:00 +10°C° 0 mm 6 m/S 758 mmHg 84%
    14:00 +10°C° 0 mm 7 m/S 757 mmHg 86%
    15:00 +10°C° 0 mm 7 m/S 757 mmHg 88%
    16:00 +9°C° 0 mm 8 m/S 757 mmHg 89%
    17:00 +9°C° 0 mm 8 m/S 756 mmHg 91%
    18:00 +9°C° 0 mm 8 m/S 756 mmHg 93%
    19:00 +8°C° 0 mm 9 m/S 755 mmHg 92%
    20:00 +9°C° 0 mm 10 m/S 754 mmHg 92%
    21:00 +9°C° 0 mm 11 m/S 753 mmHg 92%
    22:00 +10°C° 1.6 mm 12 m/S 752 mmHg 92%
    23:00 +12°C° 1.6 mm 14 m/S 751 mmHg 93%

    Morgen, 8 Dezember, Sonntag

    Zeit Temperatur Niederschläge Wind Luftdruck Luftfeuchtigkeit
    00:00 +11°C° 1.6 mm 15 m/S 751 mmHg 94%
    01:00 +12°C° 0.1 mm 13 m/S 751 mmHg 89%
    02:00 +10°C° 0.1 mm 12 m/S 751 mmHg 84%
    03:00 +9°C° 0.1 mm 11 m/S 751 mmHg 80%
    04:00 +9°C° 0 mm 11 m/S 751 mmHg 79%
    05:00 +8°C° 0 mm 11 m/S 752 mmHg 79%
    06:00 +8°C° 0 mm 11 m/S 752 mmHg 78%
    07:00 +8°C° 0 mm 12 m/S 752 mmHg 76%
    08:00 +8°C° 0 mm 12 m/S 752 mmHg 74%
    09:00 +7°C° 0 mm 13 m/S 752 mmHg 72%
    10:00 +7°C° 0.3 mm 13 m/S 752 mmHg 73%
    11:00 +6°C° 0.3 mm 14 m/S 752 mmHg 75%
    12:00 +6°C° 0.3 mm 15 m/S 752 mmHg 77%
    13:00 +6°C° 0.6 mm 15 m/S 751 mmHg 74%
    14:00 +6°C° 0.6 mm 15 m/S 751 mmHg 71%
    15:00 +6°C° 0.6 mm 16 m/S 750 mmHg 69%
    16:00 +6°C° 0.3 mm 16 m/S 750 mmHg 71%
    17:00 +5°C° 0.3 mm 17 m/S 749 mmHg 73%
    18:00 +5°C° 0.3 mm 18 m/S 749 mmHg 75%
    19:00 +6°C° 0.2 mm 18 m/S 749 mmHg 75%
    20:00 +6°C° 0.2 mm 19 m/S 748 mmHg 75%
    21:00 +6°C° 0.2 mm 20 m/S 748 mmHg 74%
    22:00 +6°C° 0.2 mm 20 m/S 748 mmHg 73%
    23:00 +6°C° 0.2 mm 21 m/S 749 mmHg 71%

    übermorgen, 9 Dezember, Montag

    Zeit Temperatur Niederschläge Wind Luftdruck Luftfeuchtigkeit
    00:00 +6°C° 0.2 mm 21 m/S 749 mmHg 70%
    01:00 +6°C° 0.3 mm 20 m/S 750 mmHg 70%
    02:00 +6°C° 0.3 mm 19 m/S 751 mmHg 71%
    03:00 +6°C° 0.3 mm 18 m/S 752 mmHg 71%
    04:00 +6°C° 0.1 mm 17 m/S 754 mmHg 71%
    05:00 +6°C° 0.1 mm 16 m/S 755 mmHg 70%
    06:00 +6°C° 0.1 mm 15 m/S 756 mmHg 70%
    07:00 +6°C° 0.1 mm 15 m/S 757 mmHg 69%
    08:00 +6°C° 0.1 mm 14 m/S 758 mmHg 69%
    09:00 +7°C° 0.1 mm 13 m/S 759 mmHg 69%
    10:00 +8°C° 0 mm 13 m/S 760 mmHg 69%
    11:00 +8°C° 0 mm 12 m/S 761 mmHg 69%
    12:00 +8°C° 0 mm 12 m/S 762 mmHg 69%
    13:00 +8°C° 0 mm 11 m/S 763 mmHg 70%
    14:00 +7°C° 0 mm 10 m/S 763 mmHg 72%
    15:00 +7°C° 0 mm 9 m/S 763 mmHg 73%
    16:00 +7°C° 0 mm 8 m/S 764 mmHg 75%
    17:00 +7°C° 0 mm 6 m/S 764 mmHg 77%
    18:00 +7°C° 0 mm 5 m/S 765 mmHg 80%
    19:00 +6°C° 0 mm 4 m/S 765 mmHg 80%
    20:00 +7°C° 0 mm 3 m/S 765 mmHg 81%
    21:00 +7°C° 0 mm 2 m/S 765 mmHg 82%
    22:00 +6°C° 0 mm 4 m/S 765 mmHg 83%
    23:00 +6°C° 0 mm 5 m/S 765 mmHg 84%

    10 Dezember, Dienstag

    Zeit Temperatur Niederschläge Wind Luftdruck Luftfeuchtigkeit
    00:00 +7°C° 0 mm 6 m/S 764 mmHg 85%
    01:00 +6°C° 0 mm 7 m/S 764 mmHg 85%
    02:00 +7°C° 0 mm 8 m/S 763 mmHg 85%
    03:00 +7°C° 0 mm 9 m/S 762 mmHg 85%
    04:00 +7°C° 0.2 mm 10 m/S 761 mmHg 86%
    05:00 +8°C° 0.2 mm 11 m/S 759 mmHg 87%
    06:00 +8°C° 0.2 mm 12 m/S 758 mmHg 88%
    07:00 +8°C° 1.7 mm 13 m/S 757 mmHg 90%
    08:00 +9°C° 1.7 mm 14 m/S 757 mmHg 91%
    09:00 +9°C° 1.7 mm 14 m/S 756 mmHg 93%
    10:00 +10°C° 0.8 mm 15 m/S 755 mmHg 92%
    11:00 +10°C° 0.8 mm 15 m/S 754 mmHg 91%
    12:00 +10°C° 0.8 mm 15 m/S 753 mmHg 91%
    13:00 +11°C° 0.2 mm 16 m/S 751 mmHg 91%
    14:00 +11°C° 0.2 mm 16 m/S 750 mmHg 90%
    15:00 +11°C° 0.2 mm 17 m/S 749 mmHg 90%
    16:00 +9°C° 1.5 mm 15 m/S 749 mmHg 87%
    17:00 +8°C° 1.5 mm 14 m/S 750 mmHg 83%
    18:00 +5°C° 1.5 mm 13 m/S 751 mmHg 80%
    19:00 +5°C° 0.1 mm 12 m/S 752 mmHg 76%
    20:00 +6°C° 0.1 mm 11 m/S 753 mmHg 72%
    21:00 +6°C° 0.1 mm 11 m/S 755 mmHg 68%
    22:00 +6°C° 0 mm 10 m/S 755 mmHg 68%
    23:00 +6°C° 0 mm 10 m/S 755 mmHg 68%

    11 Dezember, Mittwoch

    Zeit Temperatur Niederschläge Wind Luftdruck Luftfeuchtigkeit
    00:00 +6°C° 0 mm 9 m/S 756 mmHg 68%
    01:00 +6°C° 0.1 mm 10 m/S 756 mmHg 70%
    02:00 +5°C° 0.1 mm 10 m/S 756 mmHg 72%
    03:00 +4°C° 0.1 mm 11 m/S 756 mmHg 74%
    04:00 +4°C° 0.2 mm 11 m/S 755 mmHg 73%
    05:00 +4°C° 0.2 mm 11 m/S 755 mmHg 72%
    06:00 +4°C° 0.2 mm 11 m/S 755 mmHg 71%
    07:00 +4°C° 0.3 mm 11 m/S 754 mmHg 74%
    08:00 +4°C° 0.3 mm 12 m/S 754 mmHg 78%
    09:00 +4°C° 0.3 mm 12 m/S 754 mmHg 81%
    10:00 +4°C° 0.5 mm 12 m/S 753 mmHg 77%
    11:00 +4°C° 0.5 mm 12 m/S 753 mmHg 74%
    12:00 +4°C° 0.5 mm 12 m/S 753 mmHg 70%
    13:00 +4°C° 0.3 mm 12 m/S 753 mmHg 69%
    14:00 +4°C° 0.3 mm 12 m/S 753 mmHg 68%
    15:00 +4°C° 0.3 mm 12 m/S 753 mmHg 68%
    16:00 +4°C° 0.2 mm 12 m/S 754 mmHg 68%
    17:00 +4°C° 0.2 mm 12 m/S 754 mmHg 68%
    18:00 +4°C° 0.2 mm 11 m/S 754 mmHg 69%
    19:00 +4°C° 0.1 mm 11 m/S 755 mmHg 71%
    20:00 +5°C° 0.1 mm 10 m/S 755 mmHg 73%
    21:00 +5°C° 0.1 mm 10 m/S 755 mmHg 75%
    22:00 +6°C° 0 mm 10 m/S 754 mmHg 76%
    23:00 +6°C° 0 mm 10 m/S 754 mmHg 76%

    12 Dezember, Donnerstag

    Zeit Temperatur Niederschläge Wind Luftdruck Luftfeuchtigkeit
    00:00 +6°C° 0 mm 11 m/S 753 mmHg 76%
    01:00 +7°C° 0 mm 12 m/S 753 mmHg 78%
    02:00 +7°C° 0 mm 12 m/S 752 mmHg 79%
    03:00 +7°C° 0 mm 13 m/S 751 mmHg 80%
    04:00 +8°C° 0.2 mm 14 m/S 749 mmHg 81%
    05:00 +8°C° 0.2 mm 14 m/S 748 mmHg 82%
    06:00 +8°C° 0.2 mm 15 m/S 747 mmHg 83%
    07:00 +7°C° 1.2 mm 16 m/S 745 mmHg 85%
    08:00 +7°C° 1.2 mm 17 m/S 743 mmHg 86%
    09:00 +7°C° 1.2 mm 18 m/S 741 mmHg 88%
    10:00 +9°C° 1 mm 17 m/S 740 mmHg 88%
    11:00 +9°C° 1 mm 15 m/S 739 mmHg 87%
    12:00 +10°C° 1 mm 14 m/S 738 mmHg 87%
    13:00 +10°C° 0.6 mm 14 m/S 737 mmHg 85%
    14:00 +10°C° 0.6 mm 14 m/S 737 mmHg 84%
    15:00 +10°C° 0.6 mm 14 m/S 737 mmHg 82%
    16:00 +10°C° 0.3 mm 15 m/S 736 mmHg 81%
    17:00 +9°C° 0.3 mm 15 m/S 735 mmHg 79%
    18:00 +9°C° 0.3 mm 16 m/S 735 mmHg 78%
    19:00 +9°C° 0.2 mm 16 m/S 735 mmHg 75%
    20:00 +7°C° 0.2 mm 17 m/S 734 mmHg 73%
    21:00 +6°C° 0.2 mm 18 m/S 734 mmHg 70%
    22:00 +6°C° 0.3 mm 18 m/S 734 mmHg 69%
    23:00 +5°C° 0.3 mm 18 m/S 734 mmHg 67%
    Mehr zeigen